Volver al catálogo

STARLINK-35326

ActivoComunicacionesVLEO
NORAD 66031·PAYLOAD·🇺🇸 United States

Lanzado Oct 16, 2025 desde Cape Canaveral Space Force Station

Loading…

Próximos Pases (próximas 24 horas)

TLE

ActualizadoSource: CelesTrak SupGP

Época: Sep 14, 2026, 23:19 UTC

1 66031C 25232AC  26257.97201389  .00052723  00000+0  15581-2 0  2578
2 66031  53.1577 301.2073 0001171  95.7597 304.6153 15.34357259    11

Sigue STARLINK-35326 en tiempo real con AllMySat

Download on the App Store